{"data":{"norad_id":51111,"epoch":"2026-05-25T04:25:19.267392Z","epoch_age_seconds":55035,"freshness":"FRESH","line1":"1 51111U 22005H   26145.18425078 -.00000128  00000+0  10080-4 0  9995","line2":"2 51111  53.2136 305.7235 0002194 111.8051 248.3175 15.08835382240424","mean_motion":15.08835382,"eccentricity":0.0002194,"inclination_deg":53.2136,"raan_deg":305.7235,"arg_perigee_deg":111.8051,"mean_anomaly_deg":248.3175,"bstar":1.008e-5,"rev_number":24042,"period_min":95.437846777641,"perigee_km":538.23971832439,"apogee_km":541.27529043291,"semimajor_km":6917.8945043786,"source":"CELESTRAK","updated_at":"2026-05-25T13:38:16.906237Z"}}